Etusivu
METAR-TAF:

METAR-TAF

Lentoasemat :

Iowa County Airport

Mineral Point, Wisconsin, Yhdysvallat

Leveyspiiri: 42-53-07N, Pituuspiiri: 090-13-55W, korkeus merenpinnasta: 359 m

Tämänhetkinen sää

Tämä raportti tehtiin 14 minuuttia sitten, kello 02.15 UTC
tyyntä
Lämpötila 23°C
Kosteus 50%
Ilmanpaine 1015 hPa
Näkyvyys: 16.1 km
selkeää

METAR: KMRJ 060215Z AUTO 00000KT 10SM CLR 23/12 A2997 RMK AO2

Aika: 21:29 (02:29 UTC)


TAF: puuttuu

Säähavainnot ja -ennusteet yli 4000 lentoasemalta (METAR- ja TAF-raportit).

Käytössä olevat sääasemat on merkitty karttaan keltaisilla ja punaisilla pisteillä.

Aseta hiiri pisteen päälle nähdäksesi sääaseman nimen.

Klikkaa sitten nähdäksesi säähavainnot ja -ennusteet.

Kartan vaihtaminen: klikkaa mustalla rastilla varustettuja vihreitä pisteitä, niin voit zoomata sisään; viivalla varustettua vihreää pistettä, niin voit zoomata ulos tai vihreitä nuolia, niin pääset viereisille kartoille.


METAR-TAF: